When you browse on this site, cookies collect data to enhance your experience and personalize the content and advertising you see.
Visit our Privacy Policy to learn more. By continuing to use the site, you agree to this use of cookies and data.
  • In Deutschland
  • Länderverzeichnis
  • Für 7 Tage
  • Wassertemperatur
  • Satellitenkarten
  • Wetterkarte
  • Widgets
  • user-avatar
    Anmelden

    Stündliche Wetter Noto

    Heute, 14 Dezember, Freitag

    Zeit Temperatur Niederschläge Wind Luftdruck Luftfeuchtigkeit
    00:00 +12°C° 0 mm 4 m/S 749 mmHg 88%
    01:00 +12°C° 0 mm 5 m/S 749 mmHg 89%
    02:00 +12°C° 0 mm 5 m/S 748 mmHg 88%
    03:00 +12°C° 0 mm 5 m/S 748 mmHg 88%
    04:00 +12°C° 0 mm 5 m/S 748 mmHg 87%
    05:00 +12°C° 0 mm 4 m/S 748 mmHg 87%
    06:00 +12°C° 0 mm 4 m/S 747 mmHg 87%
    07:00 +12°C° 0 mm 4 m/S 747 mmHg 87%
    08:00 +13°C° 0 mm 5 m/S 747 mmHg 80%
    09:00 +15°C° 0 mm 5 m/S 747 mmHg 72%
    10:00 +17°C° 0 mm 5 m/S 747 mmHg 65%
    11:00 +17°C° 0 mm 5 m/S 746 mmHg 62%
    12:00 +19°C° 0 mm 5 m/S 746 mmHg 59%
    13:00 +19°C° 0 mm 5 m/S 746 mmHg 55%
    14:00 +17°C° 0 mm 5 m/S 746 mmHg 60%
    15:00 +18°C° 0 mm 4 m/S 745 mmHg 65%
    16:00 +17°C° 0 mm 4 m/S 745 mmHg 70%
    17:00 +16°C° 0.1 mm 3 m/S 745 mmHg 73%
    18:00 +14°C° 0.1 mm 3 m/S 745 mmHg 76%
    19:00 +14°C° 0.1 mm 3 m/S 745 mmHg 79%
    20:00 +13°C° 0.6 mm 4 m/S 745 mmHg 80%
    21:00 +13°C° 0.6 mm 4 m/S 745 mmHg 81%
    22:00 +13°C° 0.6 mm 5 m/S 745 mmHg 82%
    23:00 +12°C° 0.2 mm 4 m/S 745 mmHg 83%

    Morgen, 15 Dezember, Samstag

    Zeit Temperatur Niederschläge Wind Luftdruck Luftfeuchtigkeit
    00:00 +12°C° 0.2 mm 4 m/S 745 mmHg 83%
    01:00 +11°C° 0.2 mm 3 m/S 745 mmHg 84%
    02:00 +11°C° 0.1 mm 3 m/S 745 mmHg 83%
    03:00 +12°C° 0.1 mm 2 m/S 745 mmHg 83%
    04:00 +12°C° 0.1 mm 2 m/S 745 mmHg 82%
    05:00 +12°C° 0.1 mm 2 m/S 745 mmHg 82%
    06:00 +10°C° 0.1 mm 2 m/S 745 mmHg 82%
    07:00 +10°C° 0.1 mm 2 m/S 746 mmHg 83%
    08:00 +13°C° 0.1 mm 2 m/S 746 mmHg 76%
    09:00 +13°C° 0.1 mm 3 m/S 746 mmHg 70%
    10:00 +14°C° 0.1 mm 3 m/S 747 mmHg 64%
    11:00 +15°C° 0 mm 4 m/S 747 mmHg 61%
    12:00 +17°C° 0 mm 4 m/S 747 mmHg 59%
    13:00 +18°C° 0 mm 4 m/S 746 mmHg 56%
    14:00 +17°C° 0 mm 4 m/S 747 mmHg 60%
    15:00 +15°C° 0 mm 5 m/S 747 mmHg 64%
    16:00 +15°C° 0 mm 5 m/S 747 mmHg 68%
    17:00 +13°C° 0.1 mm 5 m/S 748 mmHg 69%
    18:00 +12°C° 0.1 mm 5 m/S 748 mmHg 71%
    19:00 +10°C° 0.1 mm 5 m/S 749 mmHg 73%
    20:00 +9°C° 0 mm 6 m/S 749 mmHg 73%
    21:00 +8°C° 0 mm 6 m/S 750 mmHg 72%
    22:00 +8°C° 0 mm 6 m/S 750 mmHg 72%
    23:00 +7°C° 0 mm 6 m/S 750 mmHg 74%

    übermorgen, 16 Dezember, Sonntag

    Zeit Temperatur Niederschläge Wind Luftdruck Luftfeuchtigkeit
    00:00 +7°C° 0 mm 6 m/S 751 mmHg 75%
    01:00 +7°C° 0 mm 6 m/S 751 mmHg 77%
    02:00 +5°C° 0 mm 6 m/S 751 mmHg 77%
    03:00 +5°C° 0 mm 6 m/S 751 mmHg 78%
    04:00 +6°C° 0 mm 5 m/S 751 mmHg 79%
    05:00 +6°C° 0 mm 5 m/S 752 mmHg 80%
    06:00 +6°C° 0 mm 5 m/S 752 mmHg 80%
    07:00 +6°C° 0 mm 4 m/S 753 mmHg 81%
    08:00 +8°C° 0 mm 4 m/S 753 mmHg 74%
    09:00 +11°C° 0 mm 4 m/S 754 mmHg 66%
    10:00 +12°C° 0 mm 4 m/S 754 mmHg 59%
    11:00 +13°C° 0 mm 4 m/S 754 mmHg 55%
    12:00 +14°C° 0 mm 4 m/S 754 mmHg 50%
    13:00 +15°C° 0 mm 4 m/S 754 mmHg 46%
    14:00 +15°C° 0 mm 4 m/S 754 mmHg 48%
    15:00 +14°C° 0 mm 3 m/S 754 mmHg 51%
    16:00 +14°C° 0 mm 3 m/S 754 mmHg 54%
    17:00 +12°C° 0 mm 3 m/S 755 mmHg 57%
    18:00 +11°C° 0 mm 3 m/S 755 mmHg 60%
    19:00 +10°C° 0 mm 3 m/S 755 mmHg 63%
    20:00 +10°C° 0 mm 3 m/S 756 mmHg 64%
    21:00 +9°C° 0 mm 2 m/S 756 mmHg 65%
    22:00 +9°C° 0 mm 2 m/S 756 mmHg 65%
    23:00 +9°C° 0 mm 2 m/S 756 mmHg 66%

    17 Dezember, Montag

    Zeit Temperatur Niederschläge Wind Luftdruck Luftfeuchtigkeit
    00:00 +9°C° 0 mm 2 m/S 756 mmHg 67%
    01:00 +9°C° 0 mm 2 m/S 756 mmHg 67%
    02:00 +9°C° 0 mm 2 m/S 756 mmHg 67%
    03:00 +9°C° 0 mm 2 m/S 756 mmHg 67%
    04:00 +9°C° 0 mm 2 m/S 755 mmHg 67%
    05:00 +9°C° 0 mm 3 m/S 755 mmHg 68%
    06:00 +9°C° 0 mm 3 m/S 756 mmHg 69%
    07:00 +9°C° 0 mm 3 m/S 756 mmHg 71%
    08:00 +11°C° 0 mm 4 m/S 756 mmHg 70%
    09:00 +13°C° 0 mm 4 m/S 756 mmHg 70%
    10:00 +15°C° 0 mm 4 m/S 756 mmHg 69%
    11:00 +16°C° 0 mm 5 m/S 756 mmHg 66%
    12:00 +17°C° 0 mm 5 m/S 755 mmHg 63%
    13:00 +19°C° 0 mm 5 m/S 755 mmHg 59%
    14:00 +17°C° 0 mm 6 m/S 755 mmHg 62%
    15:00 +17°C° 0 mm 6 m/S 754 mmHg 65%
    16:00 +16°C° 0 mm 6 m/S 754 mmHg 68%
    17:00 +15°C° 0 mm 6 m/S 754 mmHg 74%
    18:00 +14°C° 0 mm 6 m/S 755 mmHg 81%
    19:00 +12°C° 0 mm 7 m/S 755 mmHg 88%
    20:00 +12°C° 0 mm 7 m/S 755 mmHg 87%
    21:00 +12°C° 0 mm 8 m/S 755 mmHg 85%
    22:00 +11°C° 0 mm 8 m/S 755 mmHg 83%
    23:00 +11°C° 0 mm 9 m/S 755 mmHg 81%

    18 Dezember, Dienstag

    Zeit Temperatur Niederschläge Wind Luftdruck Luftfeuchtigkeit
    00:00 +11°C° 0 mm 9 m/S 755 mmHg 78%
    01:00 +11°C° 0 mm 9 m/S 755 mmHg 75%
    02:00 +11°C° 0 mm 9 m/S 755 mmHg 76%
    03:00 +10°C° 0 mm 9 m/S 755 mmHg 76%
    04:00 +10°C° 0 mm 8 m/S 755 mmHg 76%
    05:00 +9°C° 0 mm 8 m/S 755 mmHg 76%
    06:00 +9°C° 0 mm 8 m/S 755 mmHg 76%
    07:00 +9°C° 0 mm 8 m/S 755 mmHg 76%
    08:00 +10°C° 0 mm 8 m/S 755 mmHg 70%
    09:00 +11°C° 0 mm 8 m/S 756 mmHg 65%
    10:00 +12°C° 0 mm 8 m/S 756 mmHg 59%
    11:00 +14°C° 0 mm 7 m/S 756 mmHg 57%
    12:00 +15°C° 0 mm 7 m/S 755 mmHg 55%
    13:00 +15°C° 0 mm 7 m/S 755 mmHg 53%
    14:00 +15°C° 0 mm 6 m/S 755 mmHg 55%
    15:00 +14°C° 0 mm 6 m/S 755 mmHg 56%
    16:00 +14°C° 0 mm 6 m/S 755 mmHg 58%
    17:00 +13°C° 0 mm 6 m/S 755 mmHg 61%
    18:00 +10°C° 0 mm 6 m/S 756 mmHg 65%
    19:00 +9°C° 0 mm 6 m/S 756 mmHg 68%
    20:00 +9°C° 0 mm 6 m/S 756 mmHg 71%
    21:00 +8°C° 0 mm 6 m/S 756 mmHg 74%
    22:00 +8°C° 0 mm 6 m/S 757 mmHg 77%
    23:00 +8°C° 0 mm 5 m/S 757 mmHg 78%

    19 Dezember, Mittwoch

    Zeit Temperatur Niederschläge Wind Luftdruck Luftfeuchtigkeit
    00:00 +8°C° 0 mm 5 m/S 757 mmHg 79%
    01:00 +7°C° 0 mm 5 m/S 757 mmHg 79%
    02:00 +7°C° 0 mm 4 m/S 757 mmHg 80%
    03:00 +7°C° 0 mm 4 m/S 757 mmHg 81%
    04:00 +8°C° 0 mm 3 m/S 757 mmHg 82%
    05:00 +8°C° 0 mm 3 m/S 758 mmHg 83%
    06:00 +8°C° 0 mm 3 m/S 758 mmHg 84%
    07:00 +7°C° 0 mm 3 m/S 758 mmHg 85%
    08:00 +9°C° 0 mm 2 m/S 759 mmHg 77%
    09:00 +12°C° 0 mm 2 m/S 759 mmHg 69%
    10:00 +14°C° 0 mm 1 m/S 759 mmHg 61%
    11:00 +15°C° 0 mm 1 m/S 759 mmHg 57%
    12:00 +16°C° 0 mm 1 m/S 759 mmHg 52%
    13:00 +16°C° 0 mm 1 m/S 758 mmHg 48%
    14:00 +16°C° 0 mm 2 m/S 758 mmHg 53%
    15:00 +15°C° 0 mm 2 m/S 758 mmHg 58%
    16:00 +15°C° 0 mm 2 m/S 758 mmHg 62%
    17:00 +13°C° 0 mm 2 m/S 758 mmHg 69%
    18:00 +12°C° 0 mm 2 m/S 759 mmHg 75%
    19:00 +10°C° 0 mm 2 m/S 759 mmHg 81%
    20:00 +9°C° 0 mm 2 m/S 759 mmHg 82%
    21:00 +9°C° 0 mm 2 m/S 759 mmHg 82%
    22:00 +9°C° 0 mm 3 m/S 759 mmHg 83%
    23:00 +9°C° 0 mm 3 m/S 759 mmHg 83%
    Mehr zeigen